INTELSAT 33E DEB, 64398

Orbit data source: Space-Track

INTELSAT 33E DEB, 64398 is space debris in GEO originally from a launch on Wed, 24 Aug 2016 UTC launched from the French Guiana (FRGUI). Debris objects in space refer to the collection of defunct objects orbiting the Earth. Examples of debris include non-operational satellites, rocket bodies, and fragments generated from explosions, collisions, or faulty payload assembly.

Not visible in the next 10 days
Identifier
64398, 2016-053AC
Orbit
GEO
Country
Flag of USUS / ITSO
Related business
Manufacturer
Boeing/ES
Mission
Spacecraft
Bus & Motor
Unknown
Mass
Unknown
Launch date (UTC)
2016-08-24 (10 years ago)
Launch vehicle
Unknown
Launch site
French Guiana (FRGUI)
Object type
Payload
Rocket body
Debris
Shape & HBR
Unknown shape, 1.1 m
Radar Cross Section
RCS unknown

Expand to show TLE details & history
Last TLE update: 21 hours ago

TLE from 21 hours ago
0 INTELSAT 33E DEB
1 64398U 16053AC  26170.97397434 -.00000134  00000-0  00000+0 0  9995
2 64398   1.4143  53.5486 0144302 331.8673  26.7818  1.00969301  6042
Epoch: 2026-06-19T23:22Z
TLE epoch observation values (Epoch: 2026-06-19T23:22:31.382Z)
Latitude
0.00001°
Longitude
154.13563°
Altitude
35,053.491 km
Speed
3.122 km/s
True Right ascension
03h 31m 50s
True Declination
0° 00' 00"
Sunlit
Object was in daylight at epoch
Visualization orbit readout
Latitude
Unknown
Longitude
Unknown
Altitude
Unknown
Speed
Unknown
Apparent Right ascension
Unknown
Apparent Declination
Unknown
Sunlit
N/A
Visualization observer readout
Local Sidereal Time
07:20:08
Azimuth
Unknown
Elevation
Unknown
Doppler factor
Unknown
Orbital elements
Apogee altitude
36,198.913 km
Perigee altitude
34,987.601 km
Semi-major axis
41,971.394 km
Eccentricity
0.01443
Inclination
1.4143°
RAAN
53.5486°
Arg. of periapsis
331.8673°
True anomaly
27.53906°
Mean anomaly
26.7818°
Eccentric anomaly
27.1592°
Mean motion
0.25241 °/min
Orbital period
1,426.23 mins
BSTAR
0
Loading maneuver chart data...
Computing Atmospheric mass density...
Loading historical data...
Loading historical data...
Loading historical data...
Loading historical data...
Loading historical data...
Loading historical data...
Loading historical data...

Documentation

Showing up to 5 results
|